Time,TemperatureF,DewpointF,PressureIn,WindDirection,WindDirectionDegrees,WindSpeedMPH,WindSpeedGustMPH,Humidity,HourlyPrecipIn,Conditions,Clouds,dailyrainin,SoftwareType,DateUTC
2013-02-13 00:00:00,29.8,21.9,29.94,WNW,291,0.0,0.0,72,0.00,,SKC,0.00,VWS V13.01,2013-02-13 06:00:00,
2013-02-13 00:05:00,29.6,21.7,29.94,WNW,291,0.0,0.0,72,0.00,,SKC,0.00,VWS V13.01,2013-02-13 06:05:00,
2013-02-13 00:10:00,29.4,21.5,29.94,WNW,291,0.0,0.0,72,0.00,,SKC,0.00,VWS V13.01,2013-02-13 06:10:00,
2013-02-13 00:16:00,29.0,21.4,29.94,WNW,291,0.0,0.0,73,0.00,,SKC,0.00,VWS V13.01,2013-02-13 06:16:00,
2013-02-13 00:21:00,28.8,21.6,29.94,WNW,291,0.0,0.0,74,0.00,,SKC,0.00,VWS V13.01,2013-02-13 06:21:00,
2013-02-13 00:26:00,28.6,21.4,29.94,WNW,291,0.0,0.0,74,0.00,,SKC,0.00,VWS V13.01,2013-02-13 06:26:00,
2013-02-13 00:31:00,28.4,21.5,29.94,WNW,291,0.0,0.0,75,0.00,,SKC,0.00,VWS V13.01,2013-02-13 06:31:00,
2013-02-13 00:36:00,28.2,21.3,29.94,WNW,291,0.0,0.0,75,0.00,,SKC,0.00,VWS V13.01,2013-02-13 06:36:00,
2013-02-13 00:41:00,28.0,21.1,29.94,WNW,291,0.0,0.0,75,0.00,,SKC,0.00,VWS V13.01,2013-02-13 06:41:00,
2013-02-13 00:46:00,27.8,21.2,29.94,WNW,291,0.0,0.0,76,0.00,,SKC,0.00,VWS V13.01,2013-02-13 06:46:00,
2013-02-13 00:51:00,27.6,21.0,29.94,WNW,291,0.0,0.0,76,0.00,,SKC,0.00,VWS V13.01,2013-02-13 06:51:00,
2013-02-13 00:57:00,27.4,21.1,29.94,WNW,291,0.0,0.0,77,0.00,,SKC,0.00,VWS V13.01,2013-02-13 06:57:00,
2013-02-13 01:02:00,27.3,21.1,29.93,WNW,291,0.0,0.0,77,0.00,,SKC,0.00,VWS V13.01,2013-02-13 07:02:00,
2013-02-13 01:07:00,27.2,21.3,29.93,WNW,291,0.0,0.0,78,0.00,,SKC,0.00,VWS V13.01,2013-02-13 07:07:00,
2013-02-13 01:12:00,27.1,21.2,29.93,WNW,291,0.0,0.0,78,0.00,,SKC,0.00,VWS V13.01,2013-02-13 07:12:00,
2013-02-13 01:17:00,27.0,21.1,29.93,WNW,291,0.0,0.0,78,0.00,,SKC,0.00,VWS V13.01,2013-02-13 07:17:00,
2013-02-13 01:22:00,26.9,21.0,29.93,WNW,291,0.0,0.0,78,0.00,,SKC,0.00,VWS V13.01,2013-02-13 07:22:00,
2013-02-13 01:27:00,26.9,21.3,29.93,WNW,291,0.0,0.0,79,0.00,,SKC,0.00,VWS V13.01,2013-02-13 07:27:00,
2013-02-13 01:32:00,26.8,21.2,29.93,WNW,291,0.0,0.0,79,0.00,,SKC,0.00,VWS V13.01,2013-02-13 07:32:00,
2013-02-13 01:37:00,26.7,21.1,29.93,WNW,291,0.0,0.0,79,0.00,,SKC,0.00,VWS V13.01,2013-02-13 07:37:00,
2013-02-13 01:42:00,26.7,21.1,29.93,WNW,291,0.0,0.0,79,0.00,,SKC,0.00,VWS V13.01,2013-02-13 07:42:00,
2013-02-13 01:47:00,26.5,20.9,29.93,WNW,291,0.0,0.0,79,0.00,,SKC,0.00,VWS V13.01,2013-02-13 07:47:00,
2013-02-13 01:52:00,26.4,20.8,29.93,WNW,291,0.0,0.0,79,0.00,,SKC,0.00,VWS V13.01,2013-02-13 07:52:00,
2013-02-13 01:57:00,26.3,20.7,29.93,WNW,291,0.0,0.0,79,0.00,,SKC,0.00,VWS V13.01,2013-02-13 07:57:00,
2013-02-13 02:02:00,26.2,20.9,29.93,WNW,291,0.0,0.0,80,0.00,,SKC,0.00,VWS V13.01,2013-02-13 08:02:00,
2013-02-13 02:07:00,26.1,20.8,29.93,WNW,291,0.0,0.0,80,0.00,,SKC,0.00,VWS V13.01,2013-02-13 08:07:00,
2013-02-13 02:12:00,26.0,20.7,29.93,WNW,291,0.0,0.0,80,0.00,,SKC,0.00,VWS V13.01,2013-02-13 08:12:00,
2013-02-13 02:17:00,26.0,21.0,29.93,WNW,291,0.0,0.0,81,0.00,,SKC,0.00,VWS V13.01,2013-02-13 08:17:00,
2013-02-13 02:22:00,26.3,21.6,29.93,WNW,291,0.0,0.0,82,0.00,,SKC,0.00,VWS V13.01,2013-02-13 08:22:00,
2013-02-13 02:27:00,26.6,21.9,29.92,WNW,291,0.0,0.0,82,0.00,,SKC,0.00,VWS V13.01,2013-02-13 08:27:00,
2013-02-13 02:32:00,26.7,22.0,29.92,WNW,291,0.0,0.0,82,0.00,,SKC,0.00,VWS V13.01,2013-02-13 08:32:00,
2013-02-13 02:37:00,26.9,22.1,29.92,WNW,291,0.0,0.0,82,0.00,,SKC,0.00,VWS V13.01,2013-02-13 08:37:00,
2013-02-13 02:42:00,27.0,22.2,29.92,WNW,291,0.0,0.0,82,0.00,,SKC,0.00,VWS V13.01,2013-02-13 08:42:00,
2013-02-13 02:47:00,27.0,22.2,29.92,WNW,291,0.0,0.0,82,0.00,,SKC,0.00,VWS V13.01,2013-02-13 08:47:00,
2013-02-13 02:52:00,27.0,22.2,29.92,WNW,291,0.0,0.0,82,0.00,,SKC,0.00,VWS V13.01,2013-02-13 08:52:00,
2013-02-13 02:57:00,27.0,22.2,29.92,WNW,291,0.0,0.0,82,0.00,,SKC,0.00,VWS V13.01,2013-02-13 08:57:00,
2013-02-13 03:02:00,26.9,22.1,29.92,WNW,291,0.0,0.0,82,0.00,,SKC,0.00,VWS V13.01,2013-02-13 09:02:00,
2013-02-13 03:07:00,26.9,22.1,29.92,WNW,291,0.0,0.0,82,0.00,,SKC,0.00,VWS V13.01,2013-02-13 09:07:00,
2013-02-13 03:12:00,27.0,22.2,29.91,WNW,291,0.0,0.0,82,0.00,,SKC,0.00,VWS V13.01,2013-02-13 09:12:00,
2013-02-13 03:17:00,27.2,22.4,29.91,WNW,291,0.0,0.0,82,0.00,,SKC,0.00,VWS V13.01,2013-02-13 09:17:00,
2013-02-13 03:22:00,27.5,23.0,29.91,WNW,291,0.0,0.0,83,0.00,,SKC,0.00,VWS V13.01,2013-02-13 09:22:00,
2013-02-13 03:27:00,27.8,23.0,29.91,WNW,291,0.0,0.0,82,0.00,,SKC,0.00,VWS V13.01,2013-02-13 09:27:00,
2013-02-13 03:32:00,28.1,23.3,29.91,WNW,291,0.0,0.0,82,0.00,,SKC,0.00,VWS V13.01,2013-02-13 09:32:00,
2013-02-13 03:37:00,28.1,23.0,29.91,WNW,291,0.0,0.0,81,0.00,,SKC,0.00,VWS V13.01,2013-02-13 09:37:00,
2013-02-13 03:42:00,27.9,22.8,29.91,WNW,291,0.0,0.0,81,0.00,,SKC,0.00,VWS V13.01,2013-02-13 09:42:00,
2013-02-13 03:47:00,27.8,22.7,29.92,WNW,291,0.0,0.0,81,0.00,,SKC,0.00,VWS V13.01,2013-02-13 09:47:00,
2013-02-13 03:52:00,27.8,22.7,29.91,WNW,291,0.0,0.0,81,0.00,,SKC,0.00,VWS V13.01,2013-02-13 09:52:00,
2013-02-13 03:57:00,27.7,22.6,29.91,WNW,291,0.0,0.0,81,0.00,,SKC,0.00,VWS V13.01,2013-02-13 09:57:00,
2013-02-13 04:02:00,27.5,22.5,29.91,WNW,291,0.0,0.0,81,0.00,,SKC,0.00,VWS V13.01,2013-02-13 10:02:00,
2013-02-13 04:07:00,27.2,21.9,29.90,WNW,291,0.0,0.0,80,0.00,,SKC,0.00,VWS V13.01,2013-02-13 10:07:00,
2013-02-13 04:12:00,26.9,21.9,29.91,WNW,291,0.0,0.0,81,0.00,,SKC,0.00,VWS V13.01,2013-02-13 10:12:00,
2013-02-13 04:17:00,26.8,21.8,29.91,WNW,291,0.0,0.0,81,0.00,,SKC,0.00,VWS V13.01,2013-02-13 10:17:00,
2013-02-13 04:22:00,26.6,21.6,29.90,WNW,291,0.0,0.0,81,0.00,,SKC,0.00,VWS V13.01,2013-02-13 10:22:00,
2013-02-13 04:27:00,26.5,21.5,29.90,WNW,291,0.0,0.0,81,0.00,,SKC,0.00,VWS V13.01,2013-02-13 10:27:00,
2013-02-13 04:32:00,26.5,21.5,29.90,WNW,291,0.0,0.0,81,0.00,,SKC,0.00,VWS V13.01,2013-02-13 10:32:00,
2013-02-13 04:38:00,26.3,21.3,29.90,WNW,291,0.0,0.0,81,0.00,,SKC,0.00,VWS V13.01,2013-02-13 10:38:00,
2013-02-13 04:43:00,26.1,21.4,29.90,WNW,291,0.0,0.0,82,0.00,,SKC,0.00,VWS V13.01,2013-02-13 10:43:00,
2013-02-13 04:48:00,26.0,21.3,29.89,WNW,291,0.0,0.0,82,0.00,,SKC,0.00,VWS V13.01,2013-02-13 10:48:00,
2013-02-13 04:54:00,25.9,21.2,29.89,WNW,291,0.0,0.0,82,0.00,,SKC,0.00,VWS V13.01,2013-02-13 10:54:00,
2013-02-13 04:59:00,25.8,21.4,29.88,WNW,291,0.0,0.0,83,0.00,,SKC,0.00,VWS V13.01,2013-02-13 10:59:00,
2013-02-13 05:04:00,25.7,21.3,29.89,WNW,291,0.0,0.0,83,0.00,,SKC,0.00,VWS V13.01,2013-02-13 11:04:00,
2013-02-13 05:09:00,25.4,21.0,29.89,WNW,291,0.0,0.0,83,0.00,,SKC,0.00,VWS V13.01,2013-02-13 11:09:00,
2013-02-13 05:14:00,25.2,20.8,29.89,WNW,291,0.0,0.0,83,0.00,,SKC,0.00,VWS V13.01,2013-02-13 11:14:00,
2013-02-13 05:20:00,25.4,21.2,29.89,WNW,291,0.0,0.0,84,0.00,,SKC,0.00,VWS V13.01,2013-02-13 11:20:00,
2013-02-13 05:25:00,25.7,21.5,29.89,WNW,291,0.0,0.0,84,0.00,,SKC,0.00,VWS V13.01,2013-02-13 11:25:00,
2013-02-13 05:30:00,25.8,21.6,29.89,WNW,291,0.0,0.0,84,0.00,,SKC,0.00,VWS V13.01,2013-02-13 11:30:00,
2013-02-13 05:35:00,26.1,22.2,29.89,WNW,291,0.0,0.0,85,0.00,,SKC,0.00,VWS V13.01,2013-02-13 11:35:00,
2013-02-13 05:40:00,26.6,22.7,29.89,WNW,291,0.0,0.0,85,0.00,,SKC,0.00,VWS V13.01,2013-02-13 11:40:00,
2013-02-13 05:45:00,26.8,22.6,29.89,WNW,291,0.0,0.0,84,0.00,,SKC,0.00,VWS V13.01,2013-02-13 11:45:00,
2013-02-13 05:50:00,26.9,22.7,29.89,WNW,291,0.0,0.0,84,0.00,,SKC,0.00,VWS V13.01,2013-02-13 11:50:00,
2013-02-13 05:55:00,26.9,22.7,29.89,WNW,291,0.0,0.0,84,0.00,,SKC,0.00,VWS V13.01,2013-02-13 11:55:00,
2013-02-13 06:00:00,27.0,22.8,29.89,WNW,291,0.0,0.0,84,0.00,,SKC,0.00,VWS V13.01,2013-02-13 12:00:00,
2013-02-13 06:05:00,27.1,22.9,29.88,WNW,291,0.0,0.0,84,0.00,,SKC,0.00,VWS V13.01,2013-02-13 12:05:00,
2013-02-13 06:10:00,26.9,22.4,29.89,WNW,291,0.0,0.0,83,0.00,,SKC,0.00,VWS V13.01,2013-02-13 12:10:00,
2013-02-13 06:15:00,26.7,22.2,29.88,WNW,291,0.0,0.0,83,0.00,,SKC,0.00,VWS V13.01,2013-02-13 12:15:00,
2013-02-13 06:20:00,26.5,22.0,29.88,WNW,291,0.0,0.0,83,0.00,,SKC,0.00,VWS V13.01,2013-02-13 12:20:00,
2013-02-13 06:25:00,26.5,22.0,29.88,WNW,291,0.0,0.0,83,0.00,,SKC,0.00,VWS V13.01,2013-02-13 12:25:00,
2013-02-13 06:30:00,26.4,22.0,29.89,WNW,291,0.0,0.0,83,0.00,,SKC,0.00,VWS V13.01,2013-02-13 12:30:00,
2013-02-13 06:35:00,26.4,22.2,29.89,WNW,291,0.0,0.0,84,0.00,,SKC,0.00,VWS V13.01,2013-02-13 12:35:00,
2013-02-13 06:40:00,26.5,22.3,29.89,WNW,291,0.0,0.0,84,0.00,,SKC,0.00,VWS V13.01,2013-02-13 12:40:00,
2013-02-13 06:45:00,26.6,22.4,29.89,WNW,291,0.0,0.0,84,0.00,,SKC,0.00,VWS V13.01,2013-02-13 12:45:00,
2013-02-13 06:50:00,26.6,22.4,29.88,WNW,291,0.0,0.0,84,0.00,,SKC,0.00,VWS V13.01,2013-02-13 12:50:00,
2013-02-13 06:55:00,26.6,22.4,29.89,WNW,291,0.0,0.0,84,0.00,,SKC,0.00,VWS V13.01,2013-02-13 12:55:00,
2013-02-13 07:00:00,26.5,22.3,29.89,WNW,291,0.0,0.0,84,0.00,,SKC,0.00,VWS V13.01,2013-02-13 13:00:00,
2013-02-13 07:05:00,26.5,22.3,29.88,WNW,291,0.0,0.0,84,0.00,,SKC,0.00,VWS V13.01,2013-02-13 13:05:00,
2013-02-13 07:10:00,26.4,22.0,29.89,WNW,291,0.0,0.0,83,0.00,,SKC,0.00,VWS V13.01,2013-02-13 13:10:00,
2013-02-13 07:15:00,26.2,21.8,29.89,WNW,291,0.0,0.0,83,0.00,,SKC,0.00,VWS V13.01,2013-02-13 13:15:00,
2013-02-13 07:20:00,26.1,21.6,29.89,WNW,291,0.0,0.0,83,0.00,,SKC,0.00,VWS V13.01,2013-02-13 13:20:00,
2013-02-13 07:25:00,25.9,21.5,29.89,WNW,291,0.0,0.0,83,0.00,,SKC,0.00,VWS V13.01,2013-02-13 13:25:00,
2013-02-13 07:30:00,25.7,21.5,29.89,WNW,291,0.0,0.0,84,0.00,,SKC,0.00,VWS V13.01,2013-02-13 13:30:00,
2013-02-13 07:35:00,25.6,21.5,29.90,WNW,291,0.0,0.0,84,0.00,,SKC,0.00,VWS V13.01,2013-02-13 13:35:00,
2013-02-13 07:40:00,25.5,21.4,29.89,WNW,291,0.0,0.0,84,0.00,,SKC,0.00,VWS V13.01,2013-02-13 13:40:00,
2013-02-13 07:45:00,25.4,21.5,29.89,WNW,291,0.0,0.0,85,0.00,,SKC,0.00,VWS V13.01,2013-02-13 13:45:00,
2013-02-13 07:50:00,25.4,21.5,29.89,WNW,291,0.0,0.0,85,0.00,,SKC,0.00,VWS V13.01,2013-02-13 13:50:00,
2013-02-13 07:55:00,25.5,21.6,29.89,WNW,291,0.0,0.0,85,0.00,,SKC,0.00,VWS V13.01,2013-02-13 13:55:00,
2013-02-13 08:00:00,25.5,21.9,29.89,WNW,291,0.0,0.0,86,0.00,,SKC,0.00,VWS V13.01,2013-02-13 14:00:00,
2013-02-13 08:05:00,25.7,22.1,29.90,WNW,291,0.0,0.0,86,0.00,,SKC,0.00,VWS V13.01,2013-02-13 14:05:00,
2013-02-13 08:10:00,26.3,23.0,29.89,WNW,291,0.0,0.0,87,0.00,,SKC,0.00,VWS V13.01,2013-02-13 14:10:00,
2013-02-13 08:15:00,27.0,23.6,29.89,WNW,291,0.0,0.0,87,0.00,,SKC,0.00,VWS V13.01,2013-02-13 14:15:00,
2013-02-13 08:20:00,27.2,23.6,29.89,WNW,291,0.0,0.0,86,0.00,,SKC,0.00,VWS V13.01,2013-02-13 14:20:00,
2013-02-13 08:25:00,27.7,24.3,29.89,WNW,291,0.0,0.0,87,0.00,,SKC,0.00,VWS V13.01,2013-02-13 14:25:00,
2013-02-13 08:30:00,27.9,24.3,29.90,WNW,291,0.0,0.0,86,0.00,,SKC,0.00,VWS V13.01,2013-02-13 14:30:00,
2013-02-13 08:35:00,28.4,24.8,29.90,WNW,291,0.0,0.0,86,0.00,,SKC,0.00,VWS V13.01,2013-02-13 14:35:00,
2013-02-13 08:40:00,28.9,25.0,29.90,WNW,291,0.0,0.0,85,0.00,,SKC,0.00,VWS V13.01,2013-02-13 14:40:00,
2013-02-13 08:45:00,29.3,25.1,29.89,WNW,291,0.0,0.0,84,0.00,,SKC,0.00,VWS V13.01,2013-02-13 14:45:00,
2013-02-13 08:50:00,29.6,25.1,29.90,WNW,291,0.0,0.0,83,0.00,,SKC,0.00,VWS V13.01,2013-02-13 14:50:00,
2013-02-13 08:55:00,29.6,25.1,29.89,WNW,291,0.0,0.0,83,0.00,,SKC,0.00,VWS V13.01,2013-02-13 14:55:00,
2013-02-13 09:00:00,29.9,25.4,29.89,WNW,291,0.0,0.0,83,0.00,,SKC,0.00,VWS V13.01,2013-02-13 15:00:00,
2013-02-13 09:05:00,30.7,26.2,29.90,WNW,291,0.0,0.0,83,0.00,,SKC,0.00,VWS V13.01,2013-02-13 15:05:00,
2013-02-13 09:10:00,31.3,26.5,29.89,WNW,291,0.0,0.0,82,0.00,,SKC,0.00,VWS V13.01,2013-02-13 15:10:00,
2013-02-13 09:15:00,31.7,26.5,29.89,WNW,291,0.0,0.0,81,0.00,,SKC,0.00,VWS V13.01,2013-02-13 15:15:00,
2013-02-13 09:20:00,32.2,27.0,29.89,WNW,291,0.0,2.0,81,0.00,,SKC,0.00,VWS V13.01,2013-02-13 15:20:00,
2013-02-13 09:25:00,32.5,27.3,29.89,WNW,291,0.0,0.0,81,0.00,,SKC,0.00,VWS V13.01,2013-02-13 15:25:00,
2013-02-13 09:30:00,32.6,27.1,29.89,WNW,291,0.0,0.0,80,0.00,,SKC,0.00,VWS V13.01,2013-02-13 15:30:00,
2013-02-13 09:35:00,32.8,27.3,29.89,WNW,291,1.0,1.0,80,0.00,,SKC,0.00,VWS V13.01,2013-02-13 15:35:00,
2013-02-13 09:40:00,33.0,27.5,29.89,WNW,291,0.0,0.0,80,0.00,,SKC,0.00,VWS V13.01,2013-02-13 15:40:00,
2013-02-13 09:45:00,33.3,27.8,29.88,WNW,291,0.0,1.0,80,0.00,,SKC,0.00,VWS V13.01,2013-02-13 15:45:00,
2013-02-13 09:50:00,33.5,27.7,29.89,WNW,291,1.0,2.0,79,0.00,,SKC,0.00,VWS V13.01,2013-02-13 15:50:00,
2013-02-13 09:56:00,34.6,28.8,29.88,WNW,290,0.0,2.0,79,0.00,,SKC,0.00,VWS V13.01,2013-02-13 15:56:00,
2013-02-13 10:01:00,35.2,28.7,29.88,WNW,283,1.0,5.0,77,0.00,,SKC,0.00,VWS V13.01,2013-02-13 16:01:00,
2013-02-13 10:06:00,35.5,29.0,29.89,WNW,284,2.0,2.0,77,0.00,,SKC,0.00,VWS V13.01,2013-02-13 16:06:00,
2013-02-13 10:11:00,35.9,29.1,29.88,WNW,289,4.0,5.0,76,0.00,,SKC,0.00,VWS V13.01,2013-02-13 16:11:00,
2013-02-13 10:16:00,36.5,29.7,29.88,WNW,289,1.0,2.0,76,0.00,,SKC,0.00,VWS V13.01,2013-02-13 16:16:00,
2013-02-13 10:21:00,37.1,29.9,29.88,WNW,289,1.0,4.0,75,0.00,,SKC,0.00,VWS V13.01,2013-02-13 16:21:00,
2013-02-13 10:26:00,37.8,29.6,29.88,WNW,289,0.0,4.0,72,0.00,,SKC,0.00,VWS V13.01,2013-02-13 16:26:00,
2013-02-13 10:31:00,38.6,30.0,29.88,SW,235,2.0,10.0,71,0.00,,SKC,0.00,VWS V13.01,2013-02-13 16:31:00,
2013-02-13 10:36:00,38.9,29.6,29.88,SW,235,5.0,8.0,69,0.00,,SKC,0.00,VWS V13.01,2013-02-13 16:36:00,
2013-02-13 10:41:00,39.1,29.5,29.88,WSW,242,2.0,7.0,68,0.00,,SKC,0.00,VWS V13.01,2013-02-13 16:41:00,
2013-02-13 10:46:00,39.8,30.1,29.88,SW,235,2.0,6.0,68,0.00,,SKC,0.00,VWS V13.01,2013-02-13 16:46:00,
2013-02-13 10:51:00,41.1,30.6,29.87,SW,227,4.0,6.0,66,0.00,,SKC,0.00,VWS V13.01,2013-02-13 16:51:00,
2013-02-13 10:56:00,42.0,31.1,29.87,SW,224,4.0,5.0,65,0.00,,SKC,0.00,VWS V13.01,2013-02-13 16:56:00,
2013-02-13 11:01:00,42.4,30.3,29.87,WSW,254,3.0,4.0,62,0.00,,SKC,0.00,VWS V13.01,2013-02-13 17:01:00,
2013-02-13 11:06:00,42.3,30.2,29.87,West,270,2.0,5.0,62,0.00,,SKC,0.00,VWS V13.01,2013-02-13 17:06:00,
2013-02-13 11:11:00,42.8,30.7,29.87,West,275,5.0,6.0,62,0.00,,SKC,0.00,VWS V13.01,2013-02-13 17:11:00,
2013-02-13 11:16:00,43.1,30.2,29.87,West,275,4.0,5.0,60,0.00,,SKC,0.00,VWS V13.01,2013-02-13 17:16:00,
2013-02-13 11:21:00,43.3,30.0,29.87,WSW,249,5.0,6.0,59,0.00,,SKC,0.00,VWS V13.01,2013-02-13 17:21:00,
2013-02-13 11:26:00,44.3,30.9,29.87,West,274,5.0,9.0,59,0.00,,SKC,0.00,VWS V13.01,2013-02-13 17:26:00,
2013-02-13 11:31:00,44.3,30.9,29.87,WNW,282,2.0,8.0,59,0.00,,SKC,0.00,VWS V13.01,2013-02-13 17:31:00,
2013-02-13 11:36:00,44.8,30.9,29.87,WNW,287,8.0,9.0,58,0.00,,SKC,0.00,VWS V13.01,2013-02-13 17:36:00,
2013-02-13 11:41:00,45.2,30.9,29.86,WSW,257,3.0,3.0,57,0.00,,SKC,0.00,VWS V13.01,2013-02-13 17:41:00,
2013-02-13 11:46:00,45.9,30.2,29.86,SW,235,7.0,8.0,54,0.00,,SKC,0.00,VWS V13.01,2013-02-13 17:46:00,
2013-02-13 11:51:00,46.0,30.3,29.86,WNW,282,5.0,7.0,54,0.00,,SKC,0.00,VWS V13.01,2013-02-13 17:51:00,
2013-02-13 11:56:00,46.3,30.6,29.86,West,274,2.0,7.0,54,0.00,,SKC,0.00,VWS V13.01,2013-02-13 17:56:00,
2013-02-13 12:01:00,46.1,30.9,29.85,WSW,252,2.0,4.0,55,0.00,,SKC,0.00,VWS V13.01,2013-02-13 18:01:00,
2013-02-13 12:06:00,47.1,30.9,29.85,WSW,251,3.0,8.0,53,0.00,,SKC,0.00,VWS V13.01,2013-02-13 18:06:00,
2013-02-13 12:11:00,47.5,31.2,29.85,WSW,251,4.0,5.0,53,0.00,,SKC,0.00,VWS V13.01,2013-02-13 18:11:00,
2013-02-13 12:16:00,47.8,31.0,29.84,West,275,1.0,5.0,52,0.00,,SKC,0.00,VWS V13.01,2013-02-13 18:16:00,
2013-02-13 12:21:00,48.5,31.2,29.84,WSW,237,1.0,6.0,51,0.00,,SKC,0.00,VWS V13.01,2013-02-13 18:21:00,
2013-02-13 12:26:00,48.7,30.9,29.84,SW,232,5.0,13.0,50,0.00,,SKC,0.00,VWS V13.01,2013-02-13 18:26:00,
2013-02-13 12:31:00,49.0,31.2,29.83,WSW,239,5.0,14.0,50,0.00,,SKC,0.00,VWS V13.01,2013-02-13 18:31:00,
2013-02-13 12:36:00,49.0,31.2,29.83,West,276,6.0,7.0,50,0.00,,SKC,0.00,VWS V13.01,2013-02-13 18:36:00,
2013-02-13 12:41:00,49.3,30.5,29.83,West,267,4.0,15.0,48,0.00,,SKC,0.00,VWS V13.01,2013-02-13 18:41:00,
2013-02-13 12:46:00,49.2,31.4,29.83,SW,218,6.0,6.0,50,0.00,,SKC,0.00,VWS V13.01,2013-02-13 18:46:00,
2013-02-13 12:51:00,49.7,31.3,29.83,South,181,1.0,7.0,49,0.00,,SKC,0.00,VWS V13.01,2013-02-13 18:51:00,
2013-02-13 12:56:00,50.7,32.2,29.83,West,260,3.0,4.0,49,0.00,,SKC,0.00,VWS V13.01,2013-02-13 18:56:00,
2013-02-13 13:01:00,50.8,31.8,29.82,SW,231,7.0,8.0,48,0.00,,SKC,0.00,VWS V13.01,2013-02-13 19:01:00,
2013-02-13 13:06:00,50.4,31.5,29.82,West,276,2.0,8.0,48,0.00,,SKC,0.00,VWS V13.01,2013-02-13 19:06:00,
2013-02-13 13:11:00,51.7,32.7,29.82,West,272,4.0,8.0,48,0.00,,SKC,0.00,VWS V13.01,2013-02-13 19:11:00,
2013-02-13 13:16:00,51.6,32.0,29.82,West,275,6.0,12.0,47,0.00,,SKC,0.00,VWS V13.01,2013-02-13 19:16:00,
2013-02-13 13:21:00,51.7,32.7,29.82,SW,216,11.0,11.0,48,0.00,,SKC,0.00,VWS V13.01,2013-02-13 19:21:00,
2013-02-13 13:26:00,51.8,32.2,29.81,WSW,238,3.0,11.0,47,0.00,,SKC,0.00,VWS V13.01,2013-02-13 19:26:00,
2013-02-13 13:31:00,52.3,32.7,29.81,WSW,252,0.0,3.0,47,0.00,,SKC,0.00,VWS V13.01,2013-02-13 19:31:00,
2013-02-13 13:36:00,52.4,32.2,29.81,WSW,237,11.0,20.0,46,0.00,,SKC,0.00,VWS V13.01,2013-02-13 19:36:00,
2013-02-13 13:41:00,52.5,33.4,29.81,West,275,4.0,6.0,48,0.00,,SKC,0.00,VWS V13.01,2013-02-13 19:41:00,
2013-02-13 13:46:00,53.5,32.7,29.81,WSW,258,7.0,15.0,45,0.00,,SKC,0.00,VWS V13.01,2013-02-13 19:46:00,
2013-02-13 13:51:00,53.0,32.2,29.81,WSW,239,13.0,15.0,45,0.00,,SKC,0.00,VWS V13.01,2013-02-13 19:51:00,
2013-02-13 13:56:00,53.4,32.6,29.80,SW,224,6.0,7.0,45,0.00,,SKC,0.00,VWS V13.01,2013-02-13 19:56:00,
2013-02-13 14:01:00,53.7,31.8,29.80,SW,235,7.0,10.0,43,0.00,,SKC,0.00,VWS V13.01,2013-02-13 20:01:00,
2013-02-13 14:07:00,52.9,31.6,29.79,WSW,241,6.0,14.0,44,0.00,,SKC,0.00,VWS V13.01,2013-02-13 20:07:00,
2013-02-13 14:12:00,53.0,31.7,29.80,WSW,241,11.0,18.0,44,0.00,,SKC,0.00,VWS V13.01,2013-02-13 20:12:00,
2013-02-13 14:17:00,53.0,32.2,29.79,West,276,2.0,7.0,45,0.00,,SKC,0.00,VWS V13.01,2013-02-13 20:17:00,
2013-02-13 14:22:00,54.0,31.5,29.79,WNW,297,8.0,10.0,42,0.00,,SKC,0.00,VWS V13.01,2013-02-13 20:22:00,
2013-02-13 14:27:00,54.1,31.5,29.79,WSW,237,15.0,15.0,42,0.00,,SKC,0.00,VWS V13.01,2013-02-13 20:27:00,
2013-02-13 14:32:00,54.3,31.1,29.79,WNW,297,8.0,14.0,41,0.00,,SKC,0.00,VWS V13.01,2013-02-13 20:32:00,
2013-02-13 14:37:00,54.4,31.8,29.79,West,276,6.0,11.0,42,0.00,,SKC,0.00,VWS V13.01,2013-02-13 20:37:00,
2013-02-13 14:42:00,54.7,31.5,29.79,WSW,239,3.0,7.0,41,0.00,,SKC,0.00,VWS V13.01,2013-02-13 20:42:00,
2013-02-13 14:48:00,54.5,30.7,29.78,WNW,285,2.0,9.0,40,0.00,,SKC,0.00,VWS V13.01,2013-02-13 20:48:00,
2013-02-13 14:53:00,54.4,30.6,29.78,WNW,287,6.0,13.0,40,0.00,,SKC,0.00,VWS V13.01,2013-02-13 20:53:00,
2013-02-13 14:58:00,54.7,31.5,29.78,West,272,2.0,8.0,41,0.00,,SKC,0.00,VWS V13.01,2013-02-13 20:58:00,
2013-02-13 15:03:00,55.0,30.5,29.78,WSW,253,4.0,19.0,39,0.00,,SKC,0.00,VWS V13.01,2013-02-13 21:03:00,
2013-02-13 15:08:00,54.8,30.3,29.78,WSW,241,12.0,22.0,39,0.00,,SKC,0.00,VWS V13.01,2013-02-13 21:08:00,
2013-02-13 15:13:00,54.6,30.2,29.77,WNW,284,14.0,14.0,39,0.00,,SKC,0.00,VWS V13.01,2013-02-13 21:13:00,
2013-02-13 15:18:00,55.0,30.5,29.77,WNW,283,13.0,19.0,39,0.00,,SKC,0.00,VWS V13.01,2013-02-13 21:18:00,
2013-02-13 15:23:00,55.0,31.1,29.77,WNW,297,4.0,9.0,40,0.00,,SKC,0.00,VWS V13.01,2013-02-13 21:23:00,
2013-02-13 15:28:00,54.9,30.4,29.77,WSW,251,13.0,18.0,39,0.00,,SKC,0.00,VWS V13.01,2013-02-13 21:28:00,
2013-02-13 15:33:00,55.3,30.1,29.77,West,266,2.0,13.0,38,0.00,,SKC,0.00,VWS V13.01,2013-02-13 21:33:00,
2013-02-13 15:38:00,55.3,30.1,29.77,West,274,18.0,18.0,38,0.00,,SKC,0.00,VWS V13.01,2013-02-13 21:38:00,
2013-02-13 15:43:00,55.4,30.9,29.76,West,274,9.0,16.0,39,0.00,,SKC,0.00,VWS V13.01,2013-02-13 21:43:00,
2013-02-13 15:48:00,55.4,30.2,29.76,WNW,297,6.0,18.0,38,0.00,,SKC,0.00,VWS V13.01,2013-02-13 21:48:00,
2013-02-13 15:53:00,55.0,29.9,29.77,SW,226,3.0,18.0,38,0.00,,SKC,0.00,VWS V13.01,2013-02-13 21:53:00,
2013-02-13 15:58:00,54.9,30.4,29.77,SW,228,4.0,11.0,39,0.00,,SKC,0.00,VWS V13.01,2013-02-13 21:58:00,
2013-02-13 16:04:00,54.9,30.4,29.77,WNW,288,19.0,21.0,39,0.00,,SKC,0.00,VWS V13.01,2013-02-13 22:04:00,
2013-02-13 16:09:00,54.7,30.2,29.77,West,274,2.0,12.0,39,0.00,,SKC,0.00,VWS V13.01,2013-02-13 22:09:00,
2013-02-13 16:14:00,54.5,30.1,29.77,SW,233,7.0,7.0,39,0.00,,SKC,0.00,VWS V13.01,2013-02-13 22:14:00,
2013-02-13 16:20:00,54.1,30.3,29.77,SW,228,2.0,12.0,40,0.00,,SKC,0.00,VWS V13.01,2013-02-13 22:20:00,
2013-02-13 16:25:00,54.0,30.2,29.76,WSW,245,2.0,10.0,40,0.00,,SKC,0.00,VWS V13.01,2013-02-13 22:25:00,
2013-02-13 16:30:00,53.9,30.1,29.76,West,272,7.0,8.0,40,0.00,,SKC,0.00,VWS V13.01,2013-02-13 22:30:00,
2013-02-13 16:35:00,53.7,30.0,29.77,West,274,4.0,4.0,40,0.00,,SKC,0.00,VWS V13.01,2013-02-13 22:35:00,
2013-02-13 16:40:00,53.8,30.1,29.76,WSW,251,2.0,4.0,40,0.00,,SKC,0.00,VWS V13.01,2013-02-13 22:40:00,
2013-02-13 16:45:00,53.7,30.0,29.76,West,276,1.0,6.0,40,0.00,,SKC,0.00,VWS V13.01,2013-02-13 22:45:00,
2013-02-13 16:50:00,54.0,30.2,29.76,West,281,1.0,6.0,40,0.00,,SKC,0.00,VWS V13.01,2013-02-13 22:50:00,
2013-02-13 16:55:00,54.0,30.2,29.76,West,259,6.0,10.0,40,0.00,,SKC,0.00,VWS V13.01,2013-02-13 22:55:00,
2013-02-13 17:00:00,53.6,29.9,29.76,West,262,1.0,5.0,40,0.00,,SKC,0.00,VWS V13.01,2013-02-13 23:00:00,
2013-02-13 17:05:00,53.2,30.1,29.77,West,275,2.0,6.0,41,0.00,,SKC,0.00,VWS V13.01,2013-02-13 23:05:00,
2013-02-13 17:10:00,53.1,30.0,29.76,West,276,7.0,7.0,41,0.00,,SKC,0.00,VWS V13.01,2013-02-13 23:10:00,
2013-02-13 17:15:00,53.3,30.2,29.76,WNW,296,4.0,5.0,41,0.00,,SKC,0.00,VWS V13.01,2013-02-13 23:15:00,
2013-02-13 17:20:00,53.4,30.3,29.76,West,276,5.0,10.0,41,0.00,,SKC,0.00,VWS V13.01,2013-02-13 23:20:00,
2013-02-13 17:25:00,53.3,30.2,29.76,WNW,289,2.0,3.0,41,0.00,,SKC,0.00,VWS V13.01,2013-02-13 23:25:00,
2013-02-13 17:30:00,52.9,29.9,29.76,West,276,2.0,5.0,41,0.00,,SKC,0.00,VWS V13.01,2013-02-13 23:30:00,
2013-02-13 17:36:00,52.3,29.9,29.77,West,266,3.0,5.0,42,0.00,,SKC,0.00,VWS V13.01,2013-02-13 23:36:00,
2013-02-13 17:41:00,51.8,30.0,29.77,SW,235,2.0,4.0,43,0.00,,SKC,0.00,VWS V13.01,2013-02-13 23:41:00,
2013-02-13 17:47:00,51.3,30.1,29.76,WSW,253,2.0,4.0,44,0.00,,SKC,0.00,VWS V13.01,2013-02-13 23:47:00,
2013-02-13 17:52:00,51.0,29.9,29.76,West,269,1.0,1.0,44,0.00,,SKC,0.00,VWS V13.01,2013-02-13 23:52:00,
2013-02-13 17:57:00,50.8,30.2,29.76,West,264,1.0,3.0,45,0.00,,SKC,0.00,VWS V13.01,2013-02-13 23:57:00,
2013-02-13 18:02:00,50.6,30.1,29.76,WSW,239,2.0,5.0,45,0.00,,SKC,0.00,VWS V13.01,2013-02-14 00:02:00,
2013-02-13 18:07:00,50.4,29.9,29.76,SW,231,3.0,6.0,45,0.00,,SKC,0.00,VWS V13.01,2013-02-14 00:07:00,
2013-02-13 18:12:00,50.1,30.1,29.76,SW,233,0.0,4.0,46,0.00,,SKC,0.00,VWS V13.01,2013-02-14 00:12:00,
2013-02-13 18:17:00,49.9,30.0,29.76,SW,226,7.0,7.0,46,0.00,,SKC,0.00,VWS V13.01,2013-02-14 00:17:00,
2013-02-13 18:22:00,49.7,29.8,29.76,WSW,238,0.0,2.0,46,0.00,,SKC,0.00,VWS V13.01,2013-02-14 00:22:00,
2013-02-13 18:27:00,49.5,30.1,29.76,WSW,239,0.0,2.0,47,0.00,,SKC,0.00,VWS V13.01,2013-02-14 00:27:00,
2013-02-13 18:32:00,49.2,29.9,29.76,WSW,241,0.0,2.0,47,0.00,,SKC,0.00,VWS V13.01,2013-02-14 00:32:00,
2013-02-13 18:37:00,49.0,30.2,29.76,WSW,243,0.0,0.0,48,0.00,,SKC,0.00,VWS V13.01,2013-02-14 00:37:00,
2013-02-13 18:42:00,48.8,30.0,29.77,WSW,243,1.0,3.0,48,0.00,,SKC,0.00,VWS V13.01,2013-02-14 00:42:00,
2013-02-13 18:47:00,48.6,30.3,29.76,WSW,237,2.0,5.0,49,0.00,,SKC,0.00,VWS V13.01,2013-02-14 00:47:00,
2013-02-13 18:52:00,48.7,29.9,29.76,WSW,239,0.0,2.0,48,0.00,,SKC,0.00,VWS V13.01,2013-02-14 00:52:00,
2013-02-13 18:57:00,48.6,29.8,29.77,WSW,253,2.0,2.0,48,0.00,,SKC,0.00,VWS V13.01,2013-02-14 00:57:00,
2013-02-13 19:03:00,48.5,30.2,29.77,WSW,243,0.0,2.0,49,0.00,,SKC,0.00,VWS V13.01,2013-02-14 01:03:00,
2013-02-13 19:08:00,48.5,30.2,29.77,WSW,243,0.0,1.0,49,0.00,,SKC,0.00,VWS V13.01,2013-02-14 01:08:00,
2013-02-13 19:13:00,48.6,30.3,29.77,WSW,243,0.0,1.0,49,0.00,,SKC,0.00,VWS V13.01,2013-02-14 01:13:00,
2013-02-13 19:18:00,48.6,30.3,29.77,West,271,0.0,3.0,49,0.00,,SKC,0.00,VWS V13.01,2013-02-14 01:18:00,
2013-02-13 19:23:00,48.6,30.3,29.77,West,271,0.0,0.0,49,0.00,,SKC,0.00,VWS V13.01,2013-02-14 01:23:00,
2013-02-13 19:28:00,48.5,30.2,29.77,West,271,0.0,2.0,49,0.00,,SKC,0.00,VWS V13.01,2013-02-14 01:28:00,
2013-02-13 19:33:00,48.3,30.0,29.77,West,271,1.0,2.0,49,0.00,,SKC,0.00,VWS V13.01,2013-02-14 01:33:00,
2013-02-13 19:38:00,48.2,30.0,29.77,West,271,2.0,2.0,49,0.00,,SKC,0.00,VWS V13.01,2013-02-14 01:38:00,
2013-02-13 19:43:00,48.0,29.8,29.78,West,271,0.0,0.0,49,0.00,,SKC,0.00,VWS V13.01,2013-02-14 01:43:00,
2013-02-13 19:49:00,47.7,30.0,29.78,West,271,0.0,1.0,50,0.00,,SKC,0.00,VWS V13.01,2013-02-14 01:49:00,
2013-02-13 19:54:00,47.5,29.8,29.78,West,271,0.0,2.0,50,0.00,,SKC,0.00,VWS V13.01,2013-02-14 01:54:00,
2013-02-13 19:59:00,47.2,30.0,29.78,West,271,0.0,2.0,51,0.00,,SKC,0.00,VWS V13.01,2013-02-14 01:59:00,
2013-02-13 20:04:00,47.0,30.3,29.78,West,271,0.0,0.0,52,0.00,,SKC,0.00,VWS V13.01,2013-02-14 02:04:00,
2013-02-13 20:09:00,46.7,30.0,29.78,West,271,0.0,0.0,52,0.00,,SKC,0.00,VWS V13.01,2013-02-14 02:09:00,
2013-02-13 20:14:00,46.4,30.2,29.78,West,271,1.0,2.0,53,0.00,,SKC,0.00,VWS V13.01,2013-02-14 02:14:00,
2013-02-13 20:19:00,46.3,30.1,29.78,West,271,0.0,0.0,53,0.00,,SKC,0.00,VWS V13.01,2013-02-14 02:19:00,
2013-02-13 20:24:00,46.3,30.1,29.78,West,271,0.0,0.0,53,0.00,,SKC,0.00,VWS V13.01,2013-02-14 02:24:00,
2013-02-13 20:29:00,46.3,30.1,29.78,West,271,0.0,0.0,53,0.00,,SKC,0.00,VWS V13.01,2013-02-14 02:29:00,
2013-02-13 20:34:00,46.1,29.9,29.77,West,271,1.0,2.0,53,0.00,,SKC,0.00,VWS V13.01,2013-02-14 02:34:00,
2013-02-13 20:39:00,45.9,29.8,29.78,West,271,1.0,3.0,53,0.00,,SKC,0.00,VWS V13.01,2013-02-14 02:39:00,
2013-02-13 20:44:00,45.7,30.0,29.77,West,271,0.0,2.0,54,0.00,,SKC,0.00,VWS V13.01,2013-02-14 02:44:00,
2013-02-13 20:49:00,45.6,29.9,29.77,West,271,1.0,3.0,54,0.00,,SKC,0.00,VWS V13.01,2013-02-14 02:49:00,
2013-02-13 20:54:00,45.4,30.2,29.78,West,274,1.0,5.0,55,0.00,,SKC,0.00,VWS V13.01,2013-02-14 02:54:00,
2013-02-13 20:59:00,45.2,30.0,29.77,West,274,2.0,2.0,55,0.00,,SKC,0.00,VWS V13.01,2013-02-14 02:59:00,
2013-02-13 21:04:00,45.1,29.9,29.78,West,278,5.0,6.0,55,0.00,,SKC,0.00,VWS V13.01,2013-02-14 03:04:00,
2013-02-13 21:10:00,44.9,29.7,29.78,West,278,0.0,0.0,55,0.00,,SKC,0.00,VWS V13.01,2013-02-14 03:10:00,
2013-02-13 21:15:00,44.7,30.0,29.78,West,278,0.0,0.0,56,0.00,,SKC,0.00,VWS V13.01,2013-02-14 03:15:00,
2013-02-13 21:20:00,44.4,29.7,29.78,West,278,0.0,2.0,56,0.00,,SKC,0.00,VWS V13.01,2013-02-14 03:20:00,
2013-02-13 21:25:00,44.3,30.0,29.78,WNW,285,4.0,9.0,57,0.00,,SKC,0.00,VWS V13.01,2013-02-14 03:25:00,
2013-02-13 21:30:00,44.2,30.0,29.79,WNW,284,1.0,6.0,57,0.00,,SKC,0.00,VWS V13.01,2013-02-14 03:30:00,
2013-02-13 21:35:00,44.2,30.0,29.79,WNW,284,2.0,4.0,57,0.00,,SKC,0.00,VWS V13.01,2013-02-14 03:35:00,
2013-02-13 21:40:00,44.2,30.4,29.78,WNW,284,2.0,5.0,58,0.00,,SKC,0.00,VWS V13.01,2013-02-14 03:40:00,
2013-02-13 21:45:00,44.2,30.4,29.79,WNW,282,5.0,7.0,58,0.00,,SKC,0.00,VWS V13.01,2013-02-14 03:45:00,
2013-02-13 21:50:00,44.4,30.1,29.79,WNW,285,0.0,5.0,57,0.00,,SKC,0.00,VWS V13.01,2013-02-14 03:50:00,
2013-02-13 21:55:00,44.4,30.6,29.79,WNW,282,5.0,10.0,58,0.00,,SKC,0.00,VWS V13.01,2013-02-14 03:55:00,
2013-02-13 22:00:00,44.4,30.6,29.79,WNW,284,1.0,5.0,58,0.00,,SKC,0.00,VWS V13.01,2013-02-14 04:00:00,
2013-02-13 22:05:00,44.3,30.5,29.79,WNW,284,1.0,5.0,58,0.00,,SKC,0.00,VWS V13.01,2013-02-14 04:05:00,
2013-02-13 22:10:00,44.2,30.4,29.79,WNW,290,4.0,4.0,58,0.00,,SKC,0.00,VWS V13.01,2013-02-14 04:10:00,
2013-02-13 22:15:00,44.1,30.3,29.79,WNW,289,2.0,5.0,58,0.00,,SKC,0.00,VWS V13.01,2013-02-14 04:15:00,
2013-02-13 22:21:00,43.8,30.4,29.80,WNW,290,2.0,4.0,59,0.00,,SKC,0.00,VWS V13.01,2013-02-14 04:21:00,
2013-02-13 22:26:00,43.7,30.3,29.80,WNW,290,2.0,2.0,59,0.00,,SKC,0.00,VWS V13.01,2013-02-14 04:26:00,
2013-02-13 22:31:00,43.6,30.6,29.80,WNW,296,1.0,4.0,60,0.00,,SKC,0.00,VWS V13.01,2013-02-14 04:31:00,
2013-02-13 22:36:00,43.6,30.6,29.80,WNW,297,2.0,5.0,60,0.00,,SKC,0.00,VWS V13.01,2013-02-14 04:36:00,
2013-02-13 22:41:00,43.6,30.6,29.80,WNW,296,1.0,7.0,60,0.00,,SKC,0.00,VWS V13.01,2013-02-14 04:41:00,
2013-02-13 22:46:00,43.5,30.5,29.80,WNW,297,0.0,0.0,60,0.00,,SKC,0.00,VWS V13.01,2013-02-14 04:46:00,
2013-02-13 22:51:00,43.6,31.0,29.80,NW,306,2.0,2.0,61,0.00,,SKC,0.00,VWS V13.01,2013-02-14 04:51:00,
2013-02-13 22:56:00,43.6,31.0,29.80,WNW,295,2.0,4.0,61,0.00,,SKC,0.00,VWS V13.01,2013-02-14 04:56:00,
2013-02-13 23:00:00,43.6,31.0,29.80,WNW,295,1.0,4.0,61,0.00,,SKC,0.00,VWS V13.01,2013-02-14 05:00:00,
2013-02-13 23:02:00,43.6,31.0,29.80,WNW,295,4.0,4.0,61,0.00,,SKC,0.00,VWS V13.01,2013-02-14 05:02:00,
2013-02-13 23:07:00,43.7,31.1,29.80,WNW,292,0.0,5.0,61,0.00,,SKC,0.00,VWS V13.01,2013-02-14 05:07:00,
2013-02-13 23:12:00,43.7,31.1,29.80,WNW,285,2.0,5.0,61,0.00,,SKC,0.00,VWS V13.01,2013-02-14 05:12:00,
2013-02-13 23:17:00,43.8,31.2,29.80,WNW,287,0.0,2.0,61,0.00,,SKC,0.00,VWS V13.01,2013-02-14 05:17:00,
2013-02-13 23:22:00,43.8,31.2,29.81,WNW,289,2.0,2.0,61,0.00,,SKC,0.00,VWS V13.01,2013-02-14 05:22:00,
2013-02-13 23:23:00,43.8,31.2,29.80,WNW,289,2.0,5.0,61,0.00,,SKC,0.00,VWS V13.01,2013-02-14 05:23:00,
2013-02-13 23:28:00,43.9,31.3,29.81,WNW,293,0.0,4.0,61,0.00,,SKC,0.00,VWS V13.01,2013-02-14 05:28:00,
2013-02-13 23:34:00,43.8,31.2,29.81,WNW,297,2.0,6.0,61,0.00,,SKC,0.00,VWS V13.01,2013-02-14 05:34:00,
2013-02-13 23:40:00,43.8,31.2,29.81,WNW,291,5.0,7.0,61,0.00,,SKC,0.00,VWS V13.01,2013-02-14 05:40:00,
2013-02-13 23:45:00,43.7,31.5,29.81,WNW,292,4.0,7.0,62,0.00,,SKC,0.00,VWS V13.01,2013-02-14 05:45:00,
2013-02-13 23:46:00,43.7,31.1,29.81,WNW,291,0.0,6.0,61,0.00,,SKC,0.00,VWS V13.01,2013-02-14 05:46:00,
2013-02-13 23:51:00,43.6,31.5,29.81,WNW,289,6.0,6.0,62,0.00,,SKC,0.00,VWS V13.01,2013-02-14 05:51:00,
2013-02-13 23:57:00,43.4,31.3,29.81,WNW,295,1.0,5.0,62,0.00,,SKC,0.00,VWS V13.01,2013-02-14 05:57:00,